Temperature
17 16 16 16 16 16 16 16 17 16 16 16 15 15 15 15 15 15 15 15 15 15 15 15 16 16 16 16 16 16 16 16 16 16 17 17 17 17 16 16 17 17 17
17 17 17 17 16 16 16 16 16 16 16 16 15 15 15 15 15 15 15 15 15 15 15 15 15 15 15 16 16 16 16 16 16 16 17 18 18 17 17 16 16 16 17
18 17 17 17 16 16 16 16 15 15 15 15 15 15 15 15 15 15 15 15 15 15 15 16 15 15 15 15 16 15 15 16 16 16 17 18 20 20 18 16 16 16 16
18 17 17 17 16 16 15 15 15 15 15 14 14 14 14 14 14 14 14 14 15 15 15 15 15 15 15 15 15 15 15 15 16 16 16 16 17 18 19 17 17 16 15
18 17 17 16 16 15 15 14 14 14 14 14 14 13 14 14 14 14 14 14 14 14 15 15 15 15 15 15 15 15 15 15 16 16 16 16 15 16 17 19 18 16 16
18 17 17 16 16 15 15 14 13 13 13 13 13 13 13 13 13 13 13 13 14 14 14 14 14 15 15 15 15 15 15 15 15 16 16 16 16 16 17 17 17 17 17
18 17 17 16 15 15 14 14 13 12 12 12 12 12 12 12 12 12 13 13 13 13 13 13 14 14 14 14 14 15 15 15 15 15 15 16 16 17 17 17 17 16 16
18 17 16 16 15 14 14 13 12 12 12 12 11 11 11 12 12 12 12 12 13 13 13 13 13 13 13 13 14 14 14 14 14 15 15 15 15 16 16 16 16 16 17
17 17 16 15 15 14 13 13 12 11 11 11 11 11 11 11 11 11 11 12 12 12 12 12 12 12 12 12 13 13 13 13 13 14 14 14 15 15 15 15 15 16 18
17 16 15 15 14 13 13 12 11 11 10 10 10 10 10 10 10 10 10 10 11 11 11 11 11 11 12 12 12 12 12 12 12 13 13 13 14 14 14 15 15 15 16
16 16 15 14 13 13 12 11 11 10 10 9 9 8 8 8 9 9 9 9 10 10 10 10 10 11 11 11 11 11 11 11 12 12 12 13 13 13 14 14 14 14 15
15 15 14 13 12 12 11 11 10 9 9 8 8 8 8 8 8 8 8 8 8 9 9 10 10 10 11 11 11 11 11 11 11 11 11 11 12 12 13 13 13 14 14
15 14 13 12 11 11 10 10 9 9 8 8 7 7 7 7 7 7 7 7 7 8 8 9 9 10 10 10 11 11 11 10 10 10 11 11 11 11 12 12 13 13 13
14 13 12 11 11 10 9 9 8 8 7 7 7 6 6 6 6 6 6 6 6 7 7 8 8 9 9 10 10 10 10 10 10 10 10 10 10 10 11 11 12 12 13
14 13 12 11 10 9 9 8 7 7 6 6 6 6 6 6 6 6 6 6 6 6 6 7 7 8 9 9 10 10 10 10 10 10 10 10 10 10 10 10 11 11 12
13 12 11 10 10 9 8 8 7 7 6 6 6 6 6 6 6 6 5 5 5 5 6 6 6 7 8 9 9 10 10 10 10 10 10 10 10 10 10 10 10 10 11
12 11 11 10 9 9 8 7 7 6 6 6 6 6 6 6 5 5 5 5 5 5 5 5 6 6 7 8 9 9 9 10 10 9 9 10 10 9 10 10 10 10 10
11 11 10 10 9 9 8 7 7 6 6 6 6 6 5 5 5 5 5 5 5 4 4 5 5 5 6 7 8 9 9 9 9 9 9 9 10 9 9 9 10 10 10
11 10 10 9 9 8 8 7 6 6 6 6 6 5 5 5 5 5 5 5 4 4 4 4 4 5 6 6 7 8 8 8 9 9 9 9 9 9 9 9 9 10 10
10 10 9 9 9 8 7 6 6 6 6 6 5 5 5 5 5 5 5 5 4 4 4 4 4 5 5 6 7 7 8 8 8 8 9 9 9 9 9 9 9 10 10
10 9 9 9 8 8 7 6 6 6 5 5 5 5 5 5 5 5 5 5 4 4 4 4 4 5 5 6 6 7 7 8 8 9 9 9 9 9 9 9 9 9 10
10 9 9 9 8 7 7 6 6 6 5 5 5 5 5 5 5 5 5 5 4 4 4 4 4 5 5 5 6 7 7 7 8 8 9 9 9 9 9 9 9 9 9
10 9 9 8 8 7 7 6 6 6 5 5 5 5 5 5 5 5 5 5 5 4 4 4 4 5 5 5 6 6 7 7 7 8 8 8 8 8 9 9 9 9 9
9 9 8 8 8 7 7 6 6 6 5 5 5 5 5 5 5 5 5 5 5 4 4 4 4 5 5 5 6 6 6 7 7 7 7 8 8 8 8 9 9 9 9
9 8 8 7 7 7 7 6 6 6 6 6 5 5 6 6 5 5 5 5 5 4 4 4 4 5 5 5 6 6 6 7 7 7 7 8 8 8 8 9 9 9 9
8 8 7 7 7 7 6 6 6 6 6 6 6 6 6 6 6 6 6 6 5 5 5 5 5 5 5 5 5 6 6 7 7 7 7 8 8 8 9 9 9 9 9
Wind_Speed
9 9 9 9 8 8 8 8 9 9 9 8 9 9 9 8 7 5 5 5 5 5 3 4 4 5 6 8 8 8 8 8 7 7 8 9 11 11 10 10 11 11 12
8 8 8 8 9 9 9 9 10 10 10 9 9 8 10 8 7 6 6 6 6 6 5 4 5 6 7 9 8 7 8 8 7 7 8 8 9 9 11 10 10 11 10
5 5 6 7 8 9 10 10 10 10 10 11 10 10 9 8 7 8 7 8 8 7 6 6 7 8 9 9 9 9 10 9 8 9 8 7 6 4 7 8 8 8 8
3 4 6 8 10 10 10 10 11 11 11 11 11 12 11 11 10 8 8 8 7 7 6 6 7 8 9 9 10 11 9 10 9 8 9 9 5 5 4 7 8 8 8
4 6 9 10 11 12 12 11 11 12 12 12 12 12 13 11 10 10 9 9 7 6 5 5 6 7 8 9 11 9 11 10 10 9 8 9 7 8 7 5 5 7 8
6 8 10 12 12 12 12 11 11 12 13 14 14 13 14 14 14 12 11 9 7 6 5 4 4 5 6 7 9 10 12 11 11 9 8 8 8 8 8 8 7 6 6
8 10 12 14 13 13 12 12 13 14 15 15 15 15 15 15 15 14 12 10 9 7 5 5 4 4 5 6 7 9 11 12 12 11 10 9 9 7 7 8 7 5 5
10 12 14 14 13 13 13 14 15 16 16 16 15 15 15 14 13 13 13 13 11 10 7 7 6 6 5 5 6 7 9 10 12 13 13 10 10 9 8 8 7 6 7
12 14 14 14 14 14 15 16 17 17 17 17 16 15 15 14 15 15 15 14 13 12 11 10 9 8 7 6 6 6 7 8 10 12 13 12 11 10 10 9 8 8 7
14 16 15 15 15 16 17 17 17 17 17 17 16 15 16 16 15 15 16 16 16 15 14 14 13 11 10 9 8 7 7 7 8 8 11 12 12 11 10 10 9 9 8
16 16 15 16 17 17 17 18 18 18 18 17 17 17 17 17 16 16 16 15 16 16 16 16 16 15 14 12 10 10 9 9 9 8 10 12 13 10 10 11 10 10 9
16 16 17 17 17 18 18 18 18 18 18 18 18 18 18 17 17 17 17 16 16 16 17 17 17 17 17 15 14 13 11 11 11 10 9 10 9 13 11 10 12 11 10
16 16 16 17 18 18 18 18 18 18 18 18 18 18 18 18 18 18 18 17 17 17 17 17 18 18 18 17 17 16 14 13 12 12 11 10 9 9 9 11 11 10 11
16 17 17 17 17 17 17 18 18 18 18 18 18 18 18 18 18 18 18 18 18 17 17 18 18 19 19 19 18 17 16 15 14 13 12 12 12 10 7 7 9 9 10
16 17 17 17 17 17 17 17 17 17 17 17 18 18 18 18 19 19 18 18 18 18 18 18 18 19 18 18 18 17 17 16 15 14 14 14 13 13 10 7 6 7 8
17 18 18 18 18 17 17 16 17 17 17 17 18 18 19 19 19 19 19 19 18 18 18 18 18 19 18 17 16 16 17 16 15 15 14 14 14 15 15 13 10 8 9
18 18 18 17 17 17 16 16 16 17 17 17 18 18 18 19 19 20 19 19 19 18 18 18 18 18 19 15 13 16 18 16 15 15 13 13 14 16 14 15 14 12 12
18 18 17 18 17 16 16 16 16 16 17 17 17 18 18 20 20 20 19 19 17 16 16 16 17 16 16 13 14 15 18 17 15 14 14 14 12 13 14 13 13 12 11
16 16 17 17 17 16 16 16 16 16 17 17 17 18 19 19 20 20 18 16 15 15 15 15 15 14 13 12 13 14 14 14 14 14 14 14 14 11 11 11 11 11 10
15 16 16 17 16 15 15 16 16 17 17 17 18 18 18 19 19 19 17 15 13 13 13 13 13 12 11 10 13 13 11 12 12 12 12 12 12 11 14 12 11 11 10
16 16 16 16 15 15 15 15 16 16 16 17 18 18 18 18 18 16 15 13 12 12 11 11 11 10 9 9 12 12 11 10 10 9 10 10 14 13 14 11 10 9 8
17 16 16 16 15 14 14 15 16 16 16 16 17 18 17 16 14 15 14 12 11 11 10 9 8 6 6 8 11 13 11 7 9 9 8 6 15 14 13 11 8 6 7
16 16 16 17 16 14 14 15 16 15 15 16 16 16 17 15 14 13 13 11 9 8 7 6 5 4 5 7 10 12 10 9 8 7 2 6 12 12 11 11 9 9 9
16 16 16 17 17 16 15 15 15 15 15 16 16 15 14 14 13 11 10 9 8 7 6 5 4 3 4 6 9 10 11 11 11 9 7 10 11 10 7 9 10 9 9
15 15 16 16 17 17 16 15 14 14 15 15 14 14 13 13 12 11 9 8 7 5 6 6 5 4 4 4 3 5 7 8 9 9 9 9 10 10 10 10 9 8 8
16 16 16 17 17 17 16 15 14 14 14 13 13 11 11 10 10 10 8 2 3 3 4 5 6 3 2 3 1 2 4 3 2 7 9 10 10 10 10 9 8 8 8
Wind_Direction
73 65 61 56 54 45 36 25 17 10 357 352 342 334 325 316 311 313 326 323 321 325 311 275 266 246 245 245 238 231 230 235 235 243 245 240 236 237 238 239 246 242 239
77 64 54 47 40 34 23 15 12 7 355 354 336 327 321 315 317 324 328 328 321 307 294 273 261 249 244 243 241 230 242 237 225 241 248 245 231 222 232 233 232 241 237
66 47 28 20 15 12 4 359 353 346 346 339 332 335 328 321 330 334 333 335 329 317 293 269 258 253 247 240 234 228 231 240 229 229 242 246 245 218 195 216 224 221 225
31 5 355 353 352 350 345 343 338 334 330 323 327 330 326 327 331 328 331 329 328 328 317 285 264 255 249 246 237 229 233 238 238 221 233 256 293 271 218 193 203 208 218
338 337 337 338 336 334 334 333 332 328 324 318 311 306 309 316 317 320 318 316 315 315 318 310 286 265 256 249 245 237 231 232 240 235 220 224 228 240 260 242 201 204 214
317 325 327 328 328 328 329 330 333 329 325 318 311 302 300 301 303 304 306 304 304 297 293 295 297 285 273 261 252 245 233 236 238 244 237 225 225 223 228 240 237 233 223
313 321 326 328 326 324 325 327 329 327 324 319 314 308 301 296 288 288 292 292 293 289 280 278 277 280 282 279 270 256 251 239 233 232 236 237 239 242 232 236 237 239 236
319 322 326 325 322 320 321 323 325 322 320 319 317 312 305 296 294 295 295 290 283 282 280 260 252 252 257 265 270 269 261 254 242 236 235 237 237 235 230 230 230 230 225
317 320 323 323 322 319 318 320 321 320 320 318 315 307 306 306 302 298 286 281 277 274 263 252 246 239 236 240 248 257 263 265 257 248 238 236 236 231 229 227 225 232 229
318 322 322 322 322 319 318 318 318 317 316 314 314 313 312 306 301 296 295 290 285 277 270 260 251 243 233 226 229 240 243 250 257 261 260 245 241 233 227 224 221 225 241
322 322 321 322 321 319 319 319 317 316 315 315 314 311 308 306 302 295 290 287 283 280 271 260 254 249 241 232 225 234 231 235 242 248 253 251 250 243 231 224 220 217 221
321 320 321 322 320 320 319 317 317 315 314 314 312 309 307 305 302 299 298 294 286 279 273 266 258 251 246 239 233 234 234 232 234 235 240 250 250 247 242 232 222 216 215
321 320 320 320 319 318 316 315 314 313 314 313 310 308 307 307 305 304 300 296 290 283 275 267 260 254 250 246 239 236 237 235 235 233 229 232 237 254 250 242 232 221 214
319 319 319 317 317 314 314 313 312 313 312 311 309 308 308 307 306 304 301 297 292 286 278 270 262 255 249 245 242 236 234 235 235 232 230 227 219 226 245 257 250 238 222
319 320 318 317 315 315 315 312 311 312 311 310 309 308 309 308 305 302 300 298 294 287 281 274 265 256 249 242 237 236 232 230 234 233 229 225 216 209 209 226 251 261 242
320 319 318 317 316 316 313 312 311 312 311 308 307 308 306 304 302 301 298 296 293 290 284 276 268 258 249 239 226 229 236 232 231 235 232 224 208 206 203 206 215 238 252
319 317 317 316 316 314 313 311 311 310 308 305 304 305 305 303 303 301 298 296 293 291 287 281 272 261 253 246 221 215 231 231 230 231 230 229 212 196 203 201 205 218 237
316 315 315 315 315 316 314 312 309 307 305 304 305 307 309 307 304 301 297 295 293 290 286 282 276 266 253 233 215 205 223 230 228 227 225 226 222 201 198 198 201 210 218
314 312 311 313 314 313 314 312 309 306 305 305 308 310 310 307 304 301 300 299 294 291 286 283 276 266 250 223 202 200 218 223 226 226 223 220 220 195 186 208 210 212 217
315 314 312 311 311 315 316 311 308 307 306 309 309 309 307 305 305 304 303 300 295 291 286 282 275 263 243 204 188 197 217 220 223 222 223 220 223 187 181 213 221 221 219
316 314 312 311 315 317 315 308 306 305 308 309 307 307 306 307 306 307 307 303 298 294 288 284 276 261 236 190 182 195 219 224 224 225 220 214 182 181 188 216 230 232 229
319 318 314 314 317 319 315 309 307 308 308 307 306 308 309 309 310 310 309 307 303 298 293 289 278 254 215 189 183 188 213 252 243 237 232 204 165 178 190 209 223 221 230
320 318 315 314 317 321 319 311 310 311 309 306 305 307 310 311 311 310 310 310 308 304 300 294 277 248 204 176 173 184 199 218 239 241 205 146 161 177 195 212 210 214 226
321 320 318 316 318 322 320 313 312 313 310 307 307 308 310 312 316 314 312 315 315 313 308 301 284 244 204 190 185 189 195 202 220 230 192 172 182 214 225 198 204 221 225
321 319 316 316 318 321 319 318 319 319 314 310 308 308 309 313 316 316 317 321 331 334 311 306 294 256 217 180 169 215 210 216 215 208 204 204 200 207 213 218 218 219 219
320 318 319 320 320 321 320 321 323 321 315 312 310 309 310 312 315 316 319 258 271 319 298 294 302 306 33 75 154 252 287 306 206 209 210 210 211 213 215 218 217 218 219
Height
1531 1530 1529 1528 1526 1524 1522 1520 1518 1515 1513 1510 1508 1505 1502 1498 1494 1490 1486 1484 1483 1482 1481 1483 1485 1488 1490 1492 1495 1496 1497 1499 1500 1501 1502 1503 1504 1505 1505 1506 1508 1510 1512
1533 1532 1531 1529 1527 1525 1523 1520 1518 1515 1513 1510 1507 1504 1500 1497 1494 1491 1488 1486 1483 1481 1481 1481 1483 1485 1487 1489 1491 1491 1494 1496 1497 1498 1499 1500 1501 1499 1500 1501 1502 1504 1506
1533 1532 1531 1529 1527 1525 1522 1520 1517 1514 1511 1508 1507 1504 1500 1497 1494 1490 1487 1485 1483 1481 1480 1480 1481 1483 1484 1486 1487 1489 1490 1493 1494 1495 1497 1497 1495 1496 1497 1497 1498 1499 1502
1533 1532 1530 1528 1526 1524 1521 1518 1515 1512 1509 1507 1505 1502 1499 1496 1492 1489 1486 1483 1481 1479 1478 1478 1479 1480 1482 1483 1485 1486 1487 1489 1491 1491 1492 1494 1494 1495 1494 1495 1495 1496 1498
1532 1530 1529 1527 1524 1522 1519 1516 1513 1510 1507 1504 1502 1499 1497 1494 1491 1488 1484 1481 1479 1477 1476 1475 1475 1476 1477 1479 1481 1482 1484 1486 1487 1488 1489 1490 1491 1492 1493 1492 1494 1495 1495
1530 1529 1527 1525 1522 1519 1516 1513 1510 1507 1504 1501 1498 1496 1493 1490 1488 1485 1483 1480 1478 1476 1474 1472 1472 1472 1473 1474 1475 1477 1479 1480 1482 1483 1485 1487 1488 1489 1490 1490 1491 1492 1493
1528 1527 1525 1522 1519 1516 1513 1510 1507 1503 1500 1497 1494 1492 1489 1486 1483 1482 1480 1477 1476 1474 1472 1470 1469 1468 1468 1468 1469 1471 1473 1475 1476 1478 1480 1482 1484 1486 1486 1487 1488 1489 1490
1526 1524 1522 1519 1516 1513 1510 1507 1503 1499 1496 1493 1489 1486 1484 1482 1480 1478 1475 1474 1472 1471 1469 1467 1466 1465 1464 1464 1464 1465 1466 1468 1470 1472 1474 1477 1479 1481 1482 1484 1485 1486 1487
1524 1522 1519 1516 1513 1510 1506 1503 1499 1495 1491 1487 1484 1481 1478 1476 1473 1471 1469 1468 1467 1466 1464 1463 1462 1461 1460 1460 1459 1459 1460 1461 1463 1466 1468 1470 1474 1475 1477 1479 1481 1483 1482
1521 1518 1516 1513 1510 1506 1502 1499 1494 1490 1486 1482 1478 1475 1472 1469 1467 1464 1463 1461 1459 1459 1458 1457 1457 1456 1455 1455 1455 1455 1455 1455 1456 1458 1461 1464 1467 1470 1472 1474 1475 1477 1479
1517 1515 1512 1509 1506 1502 1498 1494 1489 1485 1480 1476 1472 1468 1464 1462 1459 1457 1455 1453 1451 1450 1450 1450 1450 1450 1450 1450 1449 1450 1450 1450 1450 1451 1453 1455 1459 1463 1466 1468 1470 1472 1474
1514 1511 1508 1505 1501 1497 1493 1489 1484 1480 1475 1471 1466 1462 1458 1454 1451 1449 1447 1445 1443 1442 1441 1441 1441 1442 1443 1443 1444 1444 1445 1445 1445 1446 1447 1447 1450 1454 1458 1461 1464 1466 1469
1511 1508 1505 1501 1497 1493 1489 1484 1479 1475 1470 1465 1460 1456 1452 1448 1444 1441 1438 1436 1434 1432 1432 1431 1431 1432 1434 1435 1436 1438 1439 1439 1440 1440 1441 1442 1443 1445 1449 1453 1457 1460 1463
1508 1505 1501 1498 1493 1489 1484 1479 1474 1469 1464 1460 1455 1451 1446 1442 1438 1434 1431 1428 1425 1423 1422 1421 1421 1422 1423 1425 1428 1429 1431 1432 1434 1434 1435 1437 1437 1439 1440 1444 1448 1453 1457
1505 1501 1498 1493 1489 1484 1479 1474 1469 1464 1459 1455 1450 1445 1441 1436 1432 1428 1424 1420 1417 1414 1412 1411 1410 1411 1413 1415 1418 1421 1423 1425 1427 1428 1429 1431 1432 1433 1435 1437 1440 1445 1450
1501 1498 1493 1489 1484 1479 1474 1469 1464 1460 1455 1450 1445 1440 1435 1430 1425 1421 1417 1413 1409 1406 1403 1401 1400 1400 1402 1404 1407 1412 1415 1417 1419 1421 1423 1425 1426 1427 1429 1432 1434 1438 1442
1498 1494 1489 1485 1480 1475 1470 1465 1460 1455 1450 1446 1441 1435 1430 1425 1419 1414 1409 1405 1401 1397 1394 1392 1390 1389 1391 1394 1397 1402 1407 1410 1412 1414 1416 1419 1420 1422 1425 1426 1429 1433 1436
1495 1490 1485 1481 1476 1471 1466 1461 1456 1451 1446 1441 1436 1430 1425 1419 1413 1407 1402 1397 1393 1389 1385 1382 1381 1380 1381 1384 1388 1393 1398 1402 1405 1407 1410 1413 1415 1418 1420 1422 1425 1428 1430
1491 1487 1482 1477 1472 1467 1461 1456 1451 1446 1441 1436 1430 1425 1419 1412 1406 1400 1395 1390 1385 1381 1377 1374 1372 1371 1372 1375 1380 1385 1391 1395 1398 1401 1404 1406 1410 1412 1415 1418 1421 1423 1425
1487 1482 1477 1472 1467 1462 1457 1451 1446 1441 1436 1430 1425 1419 1412 1406 1400 1394 1388 1383 1379 1374 1371 1367 1365 1365 1366 1368 1373 1379 1384 1389 1392 1395 1397 1400 1404 1407 1410 1414 1416 1418 1420
1482 1477 1473 1468 1463 1458 1452 1446 1441 1436 1430 1424 1419 1413 1407 1401 1395 1388 1383 1378 1373 1369 1365 1362 1360 1359 1360 1363 1368 1373 1379 1383 1387 1389 1392 1395 1398 1401 1405 1408 1411 1413 1416
1477 1473 1468 1463 1459 1453 1447 1441 1436 1430 1425 1419 1413 1407 1402 1396 1390 1384 1378 1374 1369 1364 1361 1358 1356 1356 1357 1360 1364 1369 1374 1378 1382 1385 1387 1390 1393 1396 1399 1403 1405 1408 1411
1473 1468 1464 1458 1454 1449 1443 1437 1431 1425 1419 1413 1408 1402 1397 1391 1386 1380 1375 1370 1366 1362 1358 1356 1354 1354 1355 1357 1361 1365 1370 1374 1377 1381 1383 1385 1388 1391 1394 1397 1400 1402 1404
1469 1464 1459 1454 1448 1443 1438 1432 1426 1420 1414 1408 1403 1398 1393 1387 1382 1377 1372 1368 1363 1360 1357 1354 1353 1353 1354 1356 1359 1362 1366 1370 1373 1376 1378 1380 1383 1386 1389 1392 1393 1395 1398
1465 1460 1455 1450 1444 1439 1433 1428 1422 1416 1410 1404 1399 1394 1389 1384 1379 1374 1370 1366 1362 1358 1355 1353 1352 1352 1353 1355 1357 1360 1364 1367 1370 1372 1374 1376 1379 1381 1384 1386 1388 1389 1391
1462 1456 1451 1446 1440 1434 1429 1424 1418 1412 1406 1400 1395 1390 1386 1381 1377 1372 1368 1364 1360 1357 1354 1352 1351 1351 1352 1353 1355 1358 1361 1363 1366 1368 1370 1372 1374 1377 1379 1381 1382 1384 1385